CW0018 Weather Reports


Display with metric or nautical units.
time (UTC)temp
F
wind
direction
speed
MPH
gust
MPH
rain 1hr
in
rain 24hr
in
rain mn
in
humidity
%
barometer
mb
20181116010206 46 206 0.0 0.0 0.00 0.00 0.00 70 1022.2
20181116004715 47 206 0.0 0.0 0.00 0.00 0.00 69 1021.9
20181116003210 49 206 0.0 0.0 0.00 0.00 0.00 68 1021.9
20181116001630 50 206 0.0 0.0 0.00 0.00 0.00 68 1021.8
20181116000115 51 206 0.0 0.0 0.00 0.00 0.00 64 1021.6
20181115234617 53 206 0.0 0.0 0.00 0.00 0.00 63 1021.6
20181115233037 55 206 0.0 0.0 0.00 0.00 0.00 60 1021.4
20181115231544 57 206 0.0 0.0 0.00 0.00 0.00 56 1021.5
20181115230051 59 206 0.0 0.0 0.00 0.00 0.00 45 1021.4
20181115224521 60 206 0.0 0.0 0.00 0.00 0.00 43 1021.4
20181115223035 61 206 0.0 0.0 0.00 0.00 0.00 42 1021.4
20181115221523 61 206 0.0 0.0 0.00 0.00 0.00 41 1021.6
20181115220006 61 229 0.0 0.0 0.00 0.00 0.00 41 1021.6
20181115214811 61 232 0.0 0.0 0.00 0.00 0.00 40 1021.6
20181115213235 61 222 0.0 0.0 0.00 0.00 0.00 39 1021.6
20181115211716 61 221 0.0 0.0 0.00 0.00 0.00 40 1021.7
20181115210114 61 221 0.0 0.0 0.00 0.00 0.00 40 1021.7
20181115204620 61 224 0.0 0.0 0.00 0.00 0.00 40 1021.9
20181115203044 61 224 0.0 0.0 0.00 0.00 0.00 39 1022.0
20181115201615 61 226 0.0 0.0 0.00 0.00 0.00 39 1022.1
20181115200107 61 217 0.0 0.0 0.00 0.00 0.00 40 1022.2
20181115194600 60 191 0.0 0.0 0.00 0.00 0.00 41 1022.6
20181115193112 59 218 0.0 0.0 0.00 0.00 0.00 42 1022.7
20181115191538 59 220 0.0 0.0 0.00 0.00 0.00 40 1022.9
20181115190035 58 220 0.0 0.0 0.00 0.00 0.00 42 1023.3
20181115184510 57 202 0.0 0.0 0.00 0.00 0.00 44 1023.6
20181115183003 56 195 0.0 0.0 0.00 0.00 0.00 44 1024.1
20181115181815 57 184 0.0 0.0 0.00 0.00 0.00 43 1024.3
20181115180210 56 219 0.0 0.0 0.00 0.00 0.00 43 1024.7
20181115174609 56 166 0.0 0.0 0.00 0.00 0.00 43 1025.1
20181115173151 55 221 0.0 0.0 0.00 0.00 0.00 44 1025.5
20181115171650 54 211 0.0 0.0 0.00 0.00 0.00 45 1025.7
20181115170105 53 213 0.0 0.0 0.00 0.00 0.00 46 1025.8
20181115164632 52 224 0.0 0.0 0.00 0.00 0.00 47 1026.0
20181115163040 51 217 0.0 0.0 0.00 0.00 0.00 50 1026.3
20181115161533 49 201 0.0 0.0 0.00 0.00 0.00 51 1026.4
20181115160050 48 225 0.0 0.0 0.00 0.00 0.00 55 1026.5
20181115154540 46 221 0.0 0.0 0.00 0.00 0.00 58 1026.7
20181115153020 43 221 0.0 0.0 0.00 0.00 0.00 64 1026.6
20181115151519 41 229 0.0 0.0 0.00 0.00 0.00 71 1026.7
20181115144637 36 273 0.0 0.0 0.00 0.00 0.00 68 1026.8
20181115143158 33 321 0.0 0.0 0.00 0.00 0.00 35 1026.8
20181115141638 31 15 0.0 0.0 0.00 0.00 0.00 14 1026.8
20181115140144 29 15 0.0 0.0 0.00 0.00 0.00 21 1026.7
20181115134711 27 15 0.0 0.0 0.00 0.00 0.00 35 1026.4
20181115133122 26 15 0.0 0.0 0.00 0.00 0.00 38 1026.4
20181115131617 26 15 0.0 0.0 0.00 0.00 0.00 42 1026.3
20181115130039 26 15 0.0 0.0 0.00 0.00 0.00 43 1026.3
20181115124642 26 15 0.0 0.0 0.00 0.00 0.00 43 1026.4
20181115123105 26 15 0.0 0.0 0.00 0.00 0.00 43 1026.2
20181115121538 26 15 0.0 0.0 0.00 0.00 0.00 42 1026.3
20181115120111 26 15 0.0 0.0 0.00 0.00 0.00 42 1026.2
20181115114612 26 15 0.0 0.0 0.00 0.00 0.00 40 1026.2
20181115113128 26 15 0.0 0.0 0.00 0.00 0.00 41 1026.1
20181115111606 26 15 0.0 0.0 0.00 0.00 0.00 43 1026.1
20181115110108 26 15 0.0 0.0 0.00 0.00 0.00 45 1026.1
20181115104551 26 15 0.0 0.0 0.00 0.00 0.00 46 1026.2
20181115103054 26 15 0.0 0.0 0.00 0.00 0.00 49 1026.2
20181115101539 26 15 0.0 0.0 0.00 0.00 0.00 50 1026.4
20181115100039 26 15 0.0 0.0 0.00 0.00 0.00 50 1026.5
20181115094536 27 15 0.0 0.0 0.00 0.00 0.00 50 1026.7
20181115093102 27 15 0.0 0.0 0.00 0.00 0.00 49 1026.4
20181115091538 27 15 0.0 0.0 0.00 0.00 0.00 51 1026.4
20181115090024 27 15 0.0 0.0 0.00 0.00 0.00 53 1026.6
20181115084547 27 15 0.0 0.0 0.00 0.00 0.00 54 1026.5
20181115083018 27 15 0.0 0.0 0.00 0.00 0.00 55 1026.4
20181115081545 27 15 0.0 0.0 0.00 0.00 0.00 54 1026.4
20181115080029 27 15 0.0 0.0 0.00 0.00 0.00 57 1026.5
20181115074524 27 15 0.0 0.0 0.00 0.00 0.00 58 1026.5
20181115073023 27 15 0.0 0.0 0.00 0.00 0.00 63 1026.7
20181115071526 28 15 0.0 0.0 0.00 0.00 0.00 62 1026.7
20181115070052 28 15 0.0 0.0 0.00 0.00 0.00 64 1026.8
20181115064531 28 15 0.0 0.0 0.00 0.00 0.00 65 1026.9
20181115063007 29 15 0.0 0.0 0.00 0.00 0.00 64 1027.1
20181115061653 29 15 0.0 0.0 0.00 0.00 0.00 63 1027.3
20181115060141 29 15 0.0 0.0 0.00 0.00 0.00 62 1027.4
20181115054638 29 15 0.0 0.0 0.00 0.00 0.00 63 1027.6
20181115053203 29 15 0.0 0.0 0.00 0.00 0.00 62 1027.7
20181115051640 29 15 0.0 0.0 0.00 0.00 0.00 63 1027.8
20181115050115 30 15 0.0 0.0 0.00 0.00 0.00 61 1027.9
20181115044647 30 15 0.0 0.0 0.00 0.00 0.00 61 1028.0
20181115043055 30 15 0.0 0.0 0.00 0.00 0.00 62 1027.9
20181115041601 30 15 0.0 0.0 0.00 0.00 0.00 63 1028.0
20181115040041 30 15 0.0 0.0 0.00 0.00 0.00 65 1028.1
20181115034533 30 15 0.0 0.0 0.00 0.00 0.00 67 1027.9
20181115033040 31 15 0.0 0.0 0.00 0.00 0.00 69 1028.0
20181115031514 31 15 0.0 0.0 0.00 0.00 0.00 71 1028.0
20181115030007 31 15 0.0 0.0 0.00 0.00 0.00 71 1028.1
20181115024812 32 15 0.0 0.0 0.00 0.00 0.00 70 1028.1
20181115023157 32 15 0.0 0.0 0.00 0.00 0.00 71 1028.0
20181115021646 33 15 0.0 0.0 0.00 0.00 0.00 72 1027.8
20181115020106 33 15 0.0 0.0 0.00 0.00 0.00 72 1027.9
20181115014624 34 15 0.0 0.0 0.00 0.00 0.00 72 1027.9
20181115013118 35 15 0.0 0.0 0.00 0.00 0.00 72 1027.9